This demonstration page uses our WeatherBlox Daily Observations layout. Learn more.

Left ArrowRight Arrow

Hourly Observations for January 14, 2018

Temp ( °F °C ) Dew Point ( °F °C ) Humidity (%) Winds ( mph kmh ) Pressure ( in mb ) Visibility ( mi km ) Precip ( " mm )
12:13 am 00:13 Mostly Cloudy with Light Snow 14 -10 11 -11.7 88 88 S 7 11 30.56 1035 1 2 0.01 0.25
12:33 am 00:33 Mostly Cloudy with Light Snow 12 -11 10 -12 92 92 SSE 8 13 30.56 1035 1 2 0.00 0.00
12:53 am 00:53 Cloudy with Light Snow 13 -10.6 10 -12.2 88 88 S 7 11 30.48 1032 2 3 0.02 0.51
1:00 am 01:00 Cloudy with Light Snow 13 -10.6 10 -12.2 88 88 S 7 11 30.53 1034 2 3 0.00 0.03
1:17 am 01:17 Cloudy with Light Snow 13 -10.6 10 -12.2 88 88 S 8 13 30.53 1034 4 6 0.00 0.03
1:53 am 01:53 Cloudy 14 -10 10 -12.2 84 84 S 9 15 30.45 1031 9 14 0.00 0.03
2:20 am 02:20 Cloudy with Light Snow 14 -10 10 -12 85 85 S 9 15 30.50 1033 3 4 0.00 0.00
2:31 am 02:31 Cloudy with Light Snow 14 -10 11 -11.7 88 88 S 6 9 30.50 1033 3 5 0.00 0.03
2:53 am 02:53 Cloudy 14 -10 11 -11.7 88 88 S 7 11 30.44 1031 10 16 0.00 0.03
3:53 am 03:53 Cloudy with Light Snow 15 -9.4 12 -11.1 88 88 SSW 8 13 30.43 1031 8 13 0.00 0.03
4:53 am 04:53 Cloudy 16 -8.9 12 -11.1 84 84 S 7 11 30.42 1030 10 16 0.00 0.03
5:03 am 05:03 Cloudy 16 -8.9 12 -11.1 84 84 S 6 9 30.45 1031 10 16 0.00 0.00
5:53 am 05:53 Cloudy 16 -8.9 13 -10.6 88 88 SSW 6 9 30.41 1030 10 16 0.00 0.00
6:41 am 06:41 Cloudy 16 -8.9 13 -10.6 88 88 SSW 6 9 30.45 1031 10 16 0.00 0.00
6:53 am 06:53 Cloudy 17 -8.3 13 -10.6 84 84 SW 7 11 30.41 1030 10 16 0.00 0.00
7:53 am 07:53 Cloudy 18 -7.8 15 -9.4 88 88 SW 5 7 30.40 1030 10 16 0.00 0.00
8:53 am 08:53 Mostly Cloudy 18 -7.8 15 -9.4 88 88 SW 5 7 30.39 1029 10 16 0.00 0.00
9:03 am 09:03 Partly Cloudy 19 -7.2 15 -9.4 84 84 SSW 6 9 30.45 1031 10 16 0.00 0.00
9:53 am 09:53 Sunny 21 -6.1 17 -8.3 85 85 SW 7 11 30.38 1029 10 16 0.00 0.00
10:53 am 10:53 Sunny 23 -5 18 -7.8 81 81 SW 5 7 30.37 1028 10 16 0.00 0.00
11:53 am 11:53 Sunny 27 -2.8 22 -5.6 81 81 SW 7 11 30.32 1027 10 16 0.00 0.00
12:53 pm 12:53 Mostly Cloudy 31 -0.6 25 -3.9 79 79 WSW 10 17 30.27 1025 10 16 0.00 0.00
1:53 pm 13:53 Sunny 33 0.6 27 -2.8 78 78 SW 9 15 30.22 1023 10 16 0.00 0.00
2:53 pm 14:53 Mostly Cloudy 36 2.2 30 -1.1 79 79 SW 8 13 30.18 1022 10 16 0.00 0.00
3:53 pm 15:53 Cloudy 36 2.2 30 -1.1 79 79 WSW 9 15 30.18 1022 10 16 0.00 0.00
4:53 pm 16:53 Cloudy 37 2.8 31 -0.6 79 79 W 9 15 30.17 1022 10 16 0.00 0.00
5:53 pm 17:53 Cloudy 37 2.8 31 -0.6 79 79 W 12 19 30.18 1022 10 16 0.00 0.00
6:53 pm 18:53 Cloudy 37 2.8 31 -0.6 79 79 NW 12 19 30.19 1023 10 16 0.00 0.00
7:46 pm 19:46 Cloudy 36 2.2 31 -0.6 82 82 NNW 9 15 30.21 1023 10 16 0.00 0.00
7:53 pm 19:53 Cloudy 36 2.2 31 -0.6 82 82 NNW 9 15 30.21 1023 10 16 0.00 0.00
8:15 pm 20:15 Cloudy 36 2.2 31 -0.6 82 82 N 13 20 30.21 1023 10 16 0.00 0.00
8:43 pm 20:43 Cloudy 35 1.7 30 -1.1 82 82 NNW 16 26 30.24 1024 10 16 0.00 0.00
8:53 pm 20:53 Cloudy 35 1.7 29 -1.7 78 78 N 17 28 30.23 1024 10 16 0.00 0.00
9:53 pm 21:53 Windy with Snow Likely 33 0.6 28 -2.2 82 82 N 20 31 30.27 1025 9 14 0.00 0.03
10:31 pm 22:31 Cloudy 31 -0.6 23 -5 72 72 N 24 39 30.33 1027 10 16 0.00 0.03
10:53 pm 22:53 Cloudy 30 -1.1 23 -5 75 75 N 18 30 30.31 1026 10 16 0.00 0.03
11:21 pm 23:21 Cloudy 29 -1.7 22 -5.6 75 75 N 24 39 30.33 1027 10 16 0.00 0.00
11:50 pm 23:50 Cloudy 28 -2 19 -7 69 69 N 23 37 30.36 1028 10 16 0.00 0.00
11:53 pm 23:53 Cloudy 28 -2.2 19 -7.2 69 69 N 22 35 30.34 1028 10 16 0.00 0.00

Powered by AerisWeather